Weather in Detroit

United States     42°19′58″N   83°02′35″W
temp.,
°C
wind,
m/s
gust,
m/s
humid.,
%
clouds,
%
prec.,
mm/h
press.,
hPa
HPBL,
m
26 may, thu
thu2623:00+18se41292100 2.0 1014310
02:00+18s51496100 5.0 1014492
05:00+18s61595100 0.4 1013786
08:00+18s61395100 0.9 1013789
11:00+20ssw71387100 0.3 1013714
14:00+22ssw6979100 0.4 1011788
17:00+23s477192 0.1 10101035
20:00+20s51288100 2.5 1009479
27 may, fri
fri2723:00+18s4997100 2.6 1009525
02:00+17s3996100 3.1 1007382
05:00+17ssw41195100 0.4 1006429
08:00+17ssw4994100 0.7 1007422
11:00+20sw587434 0.4 1007986
14:00+22ssw565928 1.1 10061460
17:00+23sw455343 0.4 10061603
20:00+19nnw137550 2.1 100699
28 may, sat
sat2823:00+14ne499292 0.8 1008342
02:00+13nne489398 0.9 1008351
05:00+14n388988 0.0 1009431
08:00+14n3881100 0.0 1011452
11:00+18nne346131 0.0 10121001
14:00+22se13464 0.0 10111648
17:00+21ssw5555100 0.0 10111039
20:00+19ssw47696 0.0 1012417
29 may, sun
sun2923:00+16s257767 0.0 1013117
02:00+16s378599 0.0 1013179
05:00+15ssw3987100 0.0 1013278
08:00+17ssw498198 0.0 1014343
11:00+20ssw586775 0.0 1014633
14:00+24ssw685646 0.0 10131124
17:00+26s610517 0.1 10121213
20:00+23s41168100 0.2 1011629
30 may, mon
mon3023:00+21s5137777 0.0 1012502
02:00+20ssw51484100 0.0 1013431
05:00+20ssw41484100 0.0 1014433
08:00+21sw5147987 0.0 1015518
11:00+26wsw7116260 0.0 1015770
14:00+30wsw7114997 0.0 10151143
17:00+31wsw694868 0.0 10151205
20:00+28wsw511635 0.0 1016640